AirNav   Phillips 66 Aviation Fuel
 
 1045 users online  

KEIW County Memorial Airport
New Madrid, Missouri, USA

GOING TO NEW MADRID?


FAA INFORMATION EFFECTIVE 23 MAY 2019

Location

FAA Identifier: EIW
Lat/Long: 36-32-07.1000N / 089-35-59.0000W
36-32.118333N / 089-35.983333W
36.5353056 / -89.5997222
(estimated)
Elevation: 295.8 ft. / 90.2 m (surveyed)
Variation: 00E (2000)
From city: 4 miles SW of NEW MADRID, MO
Time zone: UTC -5 (UTC -6 during Standard Time)
Zip code: 63866

Airport Operations

Airport use: Open to the public
Control tower: no
ARTCC: MEMPHIS CENTER
FSS: SAINT LOUIS FLIGHT SERVICE STATION
NOTAMs facility: STL (NOTAM-D service available)
Attendance: OCT-MAR MON-FRI 0800-1630, APR-SEP MON-FRI 0800-1730, ALL SAT-SUN 0900-1630
Wind indicator: lighted
Segmented circle: yes
Lights: MIRL RY 18/36 PRESET ON MED INTST; TO INCR INTST & ACTVT MIRL RY 18/36 - CTAF.
Beacon: white-green (lighted land airport)
Operates sunset to sunrise.

Airport Communications

CTAF/UNICOM: 122.8
WX AWOS-3PT at MAW (19 nm W): 119.825 (573-276-9970)
  • UNICOM UNMONITORED.
  • APCH/DEP SVC PRVDD BY MEMPHIS ARTCC ON FREQS 133.65/292.15 (PADUCAH RCAG).

Nearby radio navigation aids

VOR radial/distance  VOR name  Freq  Var
MAWr092/15.1MALDEN VORTAC111.2003E
DYRr333/33.9DYERSBURG VORTAC116.8003E

 
NDB name  Hdg/Dist  Freq  Var  ID
CHARLESTON214/22.020802WCHQ -.-. .... --.-
CAIRO210/36.439700ECIR -.-. .. .-.

Airport Services

Fuel available: 100LL
FOR SERVICE AFTER HRS, CALL ARPT MGR AT (573) 688-5058 OR (573) 934-3734.
Parking: hangars and tiedowns
Powerplant service: NONE

Runway Information

Runway 18/36

Dimensions: 3200 x 60 ft. / 975 x 18 m
Surface: asphalt, in good condition
Runway edge lights: medium intensity
Runway edge markings: RWY 36 MARKINGS SEVERELY FADED
RUNWAY 18  RUNWAY 36
Latitude: 36-32.382167N36-31.854833N
Longitude: 089-35.984500W089-35.982333W
Elevation: 294.8 ft.295.8 ft.
Traffic pattern: leftleft
Runway heading: 180360
Markings: nonprecision, in poor conditionnonprecision, in poor condition
Touchdown point: yes, no lightsyes, no lights
Obstructions: 15 ft. road, 300 ft. from runway, 250 ft. left and right of centerline, 6:1 slope to clearnone

Airport Ownership and Management from official FAA records

Ownership: Publicly-owned
Owner: COUNTY OF NEW MADRID
450 MAIN STREET, PO BOX 68
NEW MADRID, MO 63869
Phone 573-748-2524
Manager: BUSTER HAMPTON
P.O. BOX 668
NEW MADRID, MO 63869
Phone 573-688-5058
COUNTY CLERK.

Airport Operational Statistics

Aircraft based on the field: 13
Single engine airplanes: 11
Multi engine airplanes: 1
Helicopters: 1
    
Aircraft operations: avg 47/day *
72% local general aviation
22% transient general aviation
5% air taxi
<1% military
* for 12-month period ending 31 December 2015

Additional Remarks

CROP DUSTING ACFT ON & INVOF ARPT.
WATERFOWL INVOF ARPT.

Instrument Procedures

NOTE: All procedures below are presented as PDF files. If you need a reader for these files, you should download the free Adobe Reader.

NOT FOR NAVIGATION. Please procure official charts for flight.
FAA instrument procedures published for use from 23 May 2019 at 0901Z to 20 June 2019 at 0900Z.

 
IAPs - Instrument Approach Procedures
RNAV (GPS) RWY 18   download (188KB)
RNAV (GPS) RWY 36   download (193KB)
VOR/DME-A   download (135KB)
NOTE: Special Take-Off Minimums/Departure Procedures apply   download (321KB)

Other nearby airports with instrument procedures:

M85 - Gideon Memorial Airport (16 nm W)
KMAW - Malden Regional Airport (19 nm W)
KCHQ - Mississippi County Airport (22 nm NE)
KDXE - Dexter Municipal Airport (22 nm NW)
KSIK - Sikeston Memorial Municipal Airport (22 nm N)
 
Loc | Ops | Rwys | IFR | FBO | Links
Com | Nav | Svcs | Stats | Notes

Kansas City Aviation Department
 
Area around KEIW (County Memorial Airport)
 
Road maps at: MapQuest Bing Google
 
Aerial photo
WARNING: Photo may not be current or correct
Aerial photo of KEIW (County Memorial Airport)
Do you have a better or more recent aerial photo of County Memorial Airport that you would like to share? If so, please send us your photo.

 
Sectional chart

 
Airport distance calculator
Flying to County Memorial Airport? Find the distance to fly.

From to KEIW

Sunrise and sunset
Times for 25-May-2019
 Local
(UTC-5)
 Zulu
(UTC)
Morning civil twilight05:1610:16
Sunrise05:4610:46
Sunset20:0501:05
Evening civil twilight20:3501:35

Current date and time
Zulu (UTC)  25-May-2019 20:03:10
Local (UTC-5)  25-May-2019 15:03:10
 
METAR
KMAW 
19nm W 
251955Z AUTO 23011G16KT 10SM CLR 31/20 A3009 RMK AO2
KSIK 
22nm N 
251955Z AUTO 23015G20KT 10SM CLR 32/20 A3008 RMK AO2
KTKX 
28nm SW 
251955Z AUTO 21011KT 10SM SCT050 SCT055 32/20 A3006 RMK AO2
KUCY 
31nm E 
251955Z AUTO 22012KT 10SM SCT050 BKN070 31/20 A3008 RMK A01
KDYR 
34nm S 
251956Z AUTO 24008KT 10SM CLR 31/21 A3010 RMK AO2 SLP202 T03110206 PNO $
KCIR 
37nm NE 
251955Z AUTO 23007G15KT 10SM CLR 31/20 A3007 RMK AO2 T03100204
KPOF 
37nm W 
251953Z AUTO 21011KT 10SM FEW043 31/22 A3007 RMK AO2 SLP177 T03060217
KHKA 
38nm S 
251953Z AUTO 24008G17KT 200V270 10SM CLR 33/17 A3008 RMK AO2 SLP183 T03280172 $
KBYH 
38nm S 
242050Z 22009G19KT 10SM SCT065 34/18 A3006 RMK LAST
TAF
KCGI 
42nm N 
251720Z 2518/2618 24012G22KT P6SM FEW045 SCT250 FM260100 18004KT P6SM SCT250 FM261500 22010G19KT P6SM SCT250
NOTAMs
Click for the latest NOTAMs
NOTAMs are issued by the DoD/FAA and will open in a separate window not controlled by AirNav.

 

 
 

FBO, Fuel Providers, and Aircraft Ground Support

  
 Business Name 
 
 Contact 
 
 Services / Description 
 
Fuel Prices
 
Comments
  
Hampton's Flying Service 573-934-3734
no information available

If you are affiliated with Hampton's Flying Service and would like to show here your services, contact info, web link, logo, and more, click here
100LL
SS $4.75 
 Updated 23-May-2019
 
   write
SS=Self service
Update Fuel Prices
 

Would you like to see your business listed on this page?

 If your business provides an interesting product or service to pilots, flight crews, aircraft, or users of the County Memorial Airport, you should consider listing it here.  To start the listing process, click on the button below
 
Add a business
 

Other Pages about County Memorial Airport

Update a link
 
Copyright © AirNav, LLC. All rights reserved. Privacy Policy  Contact